Terminal Aerodrome Forecast
Issued by NWS

Home | Current Version | Previous Version | Text Only | Print | Product List | Glossary On
Versions: 1 2 3 4 5 6 7 8 9 10 11 12 13 14 15 16 17 18 19 20 21 22 23
903
FTUS43 KDLH 232133 AAB
TAFBRD
TAF AMD
KBRD 232133Z 2322/2418 16007KT P6SM SCT007 BKN090
      TEMPO 2400/2402 6SM TSRA BR BKN015CB
     FM240200 18006KT P6SM -SHRA VCTS OVC035CB
     FM240600 26006KT P6SM SCT250
     FM241500 29012KT P6SM SKC=

USA.gov is the U.S. government's official web portal to all federal, state and local government web resources and services.